This demonstration page uses our WeatherBlox Daily Observations layout. Learn more.

Left ArrowRight Arrow

40.92501, -98.34201

Hourly Observations for November 30, 2022

Temp ( °F °C ) Dew Point ( °F °C ) Humidity (%) Winds ( mph kmh ) Pressure ( in mb ) Visibility ( mi km ) Precip ( " mm )
12:53 am 00:53 Clear 14 -10 6 -14.4 70 70 W 12 19 30.26 1025 10 16 0.00 0.00
1:53 am 01:53 Clear 13 -10.6 5 -15 70 70 W 12 19 30.27 1025 10 16 0.00 0.00
2:53 am 02:53 Clear 11 -11.7 4 -15.6 73 73 W 9 15 30.29 1026 10 16 0.00 0.00
3:53 am 03:53 Clear 11 -11.7 3 -16.1 70 70 W 9 15 30.32 1027 10 16 0.00 0.00
4:53 am 04:53 Clear 12 -11.1 3 -16.1 66 66 W 10 17 30.35 1028 10 16 0.00 0.00
5:53 am 05:53 Clear 12 -11.1 3 -16.1 66 66 W 10 17 30.37 1029 10 16 0.00 0.00
6:53 am 06:53 Clear 10 -12.2 2 -16.7 69 69 W 10 17 30.41 1030 10 16 0.00 0.00
7:53 am 07:53 Sunny 10 -12.2 2 -16.7 69 69 W 9 15 30.44 1031 10 16 0.00 0.00
8:53 am 08:53 Sunny 14 -10 4 -15.6 63 63 W 12 19 30.45 1031 10 16 0.00 0.00
9:53 am 09:53 Sunny 19 -7.2 6 -14.4 56 56 WNW 13 20 30.47 1032 10 16 0.00 0.00
10:53 am 10:53 Sunny 23 -5 9 -12.8 54 54 WNW 12 19 30.49 1033 10 16 0.00 0.00
11:53 am 11:53 Sunny 26 -3.3 10 -12.2 50 50 W 10 17 30.48 1032 10 16 0.00 0.00
12:53 pm 12:53 Sunny 28 -2.2 10 -12.2 46 46 WNW 10 17 30.46 1031 10 16 0.00 0.00
1:53 pm 13:53 Sunny 30 -1.1 10 -12.2 43 43 W 8 13 30.43 1031 10 16 0.00 0.00
2:53 pm 14:53 Sunny 31 -0.6 9 -12.8 39 39 NW 6 9 30.42 1030 10 16 0.00 0.00
3:53 pm 15:53 Sunny 32 0 10 -12.2 39 39 Calm 30.40 1029 10 16 0.00 0.00
4:53 pm 16:53 Sunny 27 -2.8 11 -11.7 50 50 S 5 7 30.40 1029 10 16 0.00 0.00
5:53 pm 17:53 Clear 26 -3.3 12 -11.1 55 55 S 6 9 30.40 1030 10 16 0.00 0.00
6:53 pm 18:53 Clear 22 -5.6 13 -10.6 68 68 SE 7 11 30.40 1030 10 16 0.00 0.00
7:53 pm 19:53 Clear 23 -5 11 -11.7 59 59 SSE 9 15 30.40 1029 10 16 0.00 0.00
8:53 pm 20:53 Clear 22 -5.6 9 -12.8 57 57 SSE 9 15 30.39 1029 10 16 0.00 0.00
9:53 pm 21:53 Clear 20 -6.7 9 -12.8 62 62 SSE 9 15 30.35 1028 10 16 0.00 0.00
10:53 pm 22:53 Clear 24 -4.4 10 -12.2 54 54 S 16 26 30.33 1027 10 16 0.00 0.00
11:53 pm 23:53 Clear 24 -4.4 11 -11.7 57 57 S 16 26 30.29 1026 10 16 0.00 0.00

Powered by AerisWeather